[[{"header":{"parameterUnit":"m.s-1","parameterCategory":1,"la1":30.2991,"la2":30.254,"lo1":-89.0895,"lo2":-89.0444,"dy":0.0017,"dx":0.0017,"nx":28,"ny":28,"refTime":"2024-04-21T21:00:00:Z","depth":0,"parameterNumber":2,"parameterNumberName":"U-component_of_WINDS"},"data":[0,0,0,0,0,0,0,0,0,0,0,0,0,0,0,0,0,0,0,0,0,0,0,0,0,0,0,0,0,0,0,0,0,0,0,0,0,0,0,0,0,0,0,0,0,0,0,0,0,0,0,0,0,0,0,0,0,0,1.4036,1.4037,0,1.4179,1.418,1.4182,1.422,1.4219,1.4218,1.4218,1.4364,1.4369,1.4373,0,0,0,0,0,0,0,0,0,0,0,0,0,1.3798,1.3802,1.4036,1.4038,1.4039,1.4178,1.418,1.4182,1.422,1.4219,1.4218,1.4217,1.4362,1.4368,1.4374,0,0,0,0,0,0,0,0,0,0,0,0,0,1.3917,1.3804,1.4036,1.4075,1.408,1.4178,1.418,1.4183,1.4221,1.4219,1.4218,1.4217,1.4361,1.4367,1.4374,1.4443,0,0,1.4396,1.4399,0,0,0,0,0,0,0,0,1.391,1.3926,1.4068,1.4073,1.4078,1.418,1.415,1.427,1.4221,1.4167,1.4218,1.4216,1.4304,1.4316,1.4345,1.445,1.4456,1.4396,1.4401,1.4404,1.4406,0,0,0,0,0,0,0,1.3902,1.392,1.4092,1.407,1.4076,1.4086,1.4102,1.4173,1.4241,1.4172,1.4175,1.4191,1.4307,1.4338,1.4349,1.4458,1.4396,1.4402,1.4407,1.441,1.4629,1.4631,0,0,0,0,0,0,1.3887,1.3913,1.4088,1.4097,1.399,1.4092,1.4109,1.4149,1.424,1.4253,1.4192,1.4193,1.4327,1.4341,1.4354,1.4442,1.4404,1.441,1.4414,1.4628,1.463,1.4631,0,0,0,0,0,0,1.3882,1.3902,1.4082,1.4006,1.4029,1.4097,1.4142,1.4152,1.4184,1.4256,1.4268,1.4212,1.4326,1.4344,1.4421,1.4447,1.4413,1.442,1.4626,1.4628,1.4631,1.4617,0,0,0,0,0,0,1.3875,1.39,1.3926,1.4006,1.4033,1.4146,1.4143,1.4156,1.4196,1.4198,1.4277,1.4289,1.4327,1.441,1.4428,1.4457,1.4425,1.4624,1.4627,1.463,1.4615,1.4619,1.4622,0,0,0,0,0,1.3866,1.3916,1.3927,1.3948,1.4067,1.4147,1.4163,1.4205,1.4198,1.4225,1.4272,1.4287,1.4442,1.4418,1.4438,1.4469,1.4622,1.4626,1.463,1.4614,1.4618,1.4621,0,0,0,0,0,0,1.3837,1.3927,1.394,1.4018,1.4075,1.4154,1.4189,1.4207,1.4268,1.4267,1.4316,1.4334,1.4408,1.4446,1.4418,1.4542,1.4532,1.454,1.4514,1.4518,1.4521,1.451,1.4431,0,0,0,0,0,1.3839,1.3897,1.3973,1.4034,1.4062,1.4121,1.4157,1.4185,1.4246,1.427,1.4322,1.4381,1.4443,1.4483,1.4544,1.4622,1.464,1.4653,1.4656,1.4658,1.4664,1.471,1.4717,1.4643,1.4643,1.4643,0,0,1.3845,1.3902,1.3935,1.4029,1.4077,1.4136,1.414,1.4202,1.4247,1.4279,1.4355,1.4396,1.4465,1.4543,1.458,1.4577,1.4689,1.4663,1.4664,1.4669,1.4715,1.4722,1.4728,1.4646,1.4645,1.4645,0,0,1.3886,1.3934,1.3991,1.4039,1.4111,1.415,1.4164,1.4241,1.4269,1.4347,1.4373,1.4427,1.4533,1.4582,1.462,1.4683,1.4699,1.4701,1.4717,1.4761,1.4767,1.4772,1.4796,1.4803,1.4707,1.4707,1.4707,0,1.3884,1.3974,1.4018,1.4079,1.4121,1.4154,1.4213,1.4257,1.4345,1.4373,1.4369,1.4504,1.4553,1.4644,1.4659,1.4689,1.4707,1.4692,1.4762,1.4768,1.4774,1.4797,1.4805,1.4707,1.4707,1.4707,1.4707,0,1.3968,1.403,1.4068,1.4153,1.4199,1.4258,1.4313,1.4354,1.4378,1.4418,1.4498,1.4558,1.4633,1.4656,1.468,1.4752,1.4748,1.4752,1.4744,1.478,1.4803,1.4812,1.4707,1.4707,1.4707,1.4707,0,0,1.3993,1.4104,1.4117,1.4157,1.424,1.4289,1.4351,1.4424,1.4459,1.452,1.4574,1.4664,1.4669,1.4713,1.4743,1.4782,1.4829,1.4782,1.4785,1.479,1.4914,1.491,1.4919,1.4841,1.4843,1.4845,1.4908,0,1.4045,1.4156,1.4199,1.429,1.4349,1.4383,1.4437,1.4495,1.4534,1.4591,1.4635,1.4698,1.47,1.4727,1.4767,1.4815,1.4855,1.4811,1.4893,1.4895,1.4874,1.4931,1.4926,1.4983,1.4917,1.4919,1.492,0,1.4119,1.4181,1.4279,1.4357,1.4383,1.4431,1.4503,1.4556,1.4623,1.4649,1.4699,1.4727,1.4795,1.4783,1.4878,1.4847,1.4883,1.4912,1.4916,1.4925,1.4909,1.4942,1.5002,1.5011,1.4934,1.4933,1.4932,0,1.4129,1.4237,1.4309,1.4342,1.4435,1.4468,1.4508,1.4574,1.4616,1.4679,1.4708,1.4778,1.4816,1.4871,1.4918,1.4904,1.5009,1.5,1.5033,1.5032,1.5053,1.5051,1.512,1.5076,1.5076,1.5076,1.5076,0,1.4182,1.424,1.4315,1.4359,1.4427,1.4476,1.4542,1.4584,1.4643,1.4697,1.4731,1.4781,1.484,1.4899,1.4936,1.501,1.5027,1.5051,1.506,1.5048,1.5045,1.5072,1.5069,1.5078,1.5078,1.5077,1.5077,0,1.4203,1.4255,1.4337,1.4419,1.4441,1.4487,1.4557,1.4602,1.4645,1.4713,1.4732,1.4798,1.4869,1.4922,1.5013,1.5039,1.5118,1.5127,1.5095,1.51,1.513,1.5127,1.522,1.5235,1.518,1.518,1.5181,0,1.4233,1.4279,1.4366,1.4405,1.4446,1.4508,1.4552,1.4603,1.4647,1.4728,1.4764,1.4838,1.4899,1.5011,1.5068,1.5139,1.515,1.5178,1.5161,1.5148,1.5152,1.5149,1.5154,1.518,1.5181,1.5181,1.5181,0,1.4282,1.4306,1.4368,1.4439,1.4491,1.455,1.4609,1.4639,1.4702,1.475,1.4823,1.4871,1.4965,1.5038,1.5115,1.5158,1.5181,1.5186,1.5198,1.5186,1.5166,1.5178,1.5102,1.5184,1.5183,1.5183,1.5183,1.5183,1.4309,1.4352,1.4421,1.4489,1.454,1.4595,1.4642,1.4691,1.4753,1.4834,1.4861,1.4937,1.5005,1.5111,1.5155,1.5216,1.5215,1.5232,1.5236,1.524,1.5239,1.5156,1.523,1.523,1.523,1.523,1.523,0,1.436,1.4407,1.4469,1.4552,1.4606,1.4623,1.469,1.4735,1.4801,1.4863,1.4923,1.5008,1.508,1.5143,1.5218,1.5255,1.5267,1.5273,1.5271,1.5281,1.5235,1.5217,1.5262,1.5262,1.5262,1.5262,1.5262,1.5262,1.4393,1.4468,1.45,1.4601,1.4648,1.4722,1.476,1.4811,1.4861,1.4955,1.5015,1.5056,1.5119,1.5199,1.5266,1.5283,1.5309,1.5312,1.5332,1.5288,1.5284,1.528,1.5264,1.5317,1.5318,1.5373,1.5374,1.5374]},{"header":{"parameterUnit":"m.s-1","parameterCategory":1,"la1":30.2991,"la2":30.254,"lo1":-89.0895,"lo2":-89.0444,"dy":0.0017,"dx":0.0017,"nx":28,"ny":28,"refTime":"2024-04-21T21:00:00:Z","depth":0,"parameterNumber":3,"parameterNumberName":"V-component_of_WINDS"},"data":[0,0,0,0,0,0,0,0,0,0,0,0,0,0,0,0,0,0,0,0,0,0,0,0,0,0,0,0,0,0,0,0,0,0,0,0,0,0,0,0,0,0,0,0,0,0,0,0,0,0,0,0,0,0,0,0,0,0,-6.0277,-6.0278,0,-6.0328,-6.0329,-6.033,-6.0283,-6.0281,-6.0279,-6.0277,-6.0326,-6.0329,-6.0332,0,0,0,0,0,0,0,0,0,0,0,0,0,-6.0135,-6.0138,-6.0277,-6.0278,-6.0278,-6.0328,-6.0329,-6.033,-6.0283,-6.0281,-6.0278,-6.0276,-6.0325,-6.0329,-6.0332,0,0,0,0,0,0,0,0,0,0,0,0,0,-6.0192,-6.0139,-6.0277,-6.0261,-6.026,-6.0328,-6.0329,-6.033,-6.0284,-6.0281,-6.0278,-6.0275,-6.0324,-6.0328,-6.0333,-6.0418,0,0,-6.0347,-6.0349,0,0,0,0,0,0,0,0,-6.0189,-6.0198,-6.0263,-6.0262,-6.0262,-6.0296,-6.0297,-6.0359,-6.0284,-6.0275,-6.0277,-6.0274,-6.0318,-6.0323,-6.0339,-6.042,-6.0422,-6.0347,-6.035,-6.0352,-6.0353,0,0,0,0,0,0,0,-6.0185,-6.0195,-6.0297,-6.0264,-6.0263,-6.025,-6.0255,-6.0308,-6.0312,-6.0275,-6.0272,-6.0279,-6.0317,-6.0335,-6.034,-6.0423,-6.0347,-6.0351,-6.0354,-6.0356,-6.0575,-6.0578,0,0,0,0,0,0,-6.0184,-6.0192,-6.0296,-6.0299,-6.0218,-6.0255,-6.0261,-6.0288,-6.0311,-6.0312,-6.0281,-6.0276,-6.0328,-6.0334,-6.0341,-6.0441,-6.0352,-6.0356,-6.0359,-6.0572,-6.0576,-6.0579,0,0,0,0,0,0,-6.0181,-6.0193,-6.0294,-6.0245,-6.0257,-6.0261,-6.0291,-6.029,-6.0308,-6.0315,-6.0315,-6.0299,-6.0326,-6.0335,-6.0399,-6.0443,-6.0358,-6.0363,-6.0569,-6.0574,-6.0578,-6.0643,0,0,0,0,0,0,-6.0177,-6.0192,-6.0226,-6.0246,-6.0259,-6.0352,-6.0294,-6.0294,-6.0316,-6.031,-6.0332,-6.0332,-6.0325,-6.0393,-6.0404,-6.0447,-6.0366,-6.0565,-6.0571,-6.0576,-6.0637,-6.065,-6.066,0,0,0,0,0,-6.0172,-6.0241,-6.0228,-6.024,-6.0301,-6.0355,-6.0362,-6.0353,-6.032,-6.0353,-6.0358,-6.0332,-6.0436,-6.04,-6.0412,-6.0457,-6.0562,-6.0569,-6.0576,-6.0632,-6.0647,-6.066,0,0,0,0,0,0,-6.0225,-6.0244,-6.0229,-6.0307,-6.033,-6.0347,-6.0388,-6.0369,-6.0401,-6.0394,-6.038,-6.0385,-6.0453,-6.0461,-6.042,-6.054,-6.0494,-6.0503,-6.0532,-6.0547,-6.0558,-6.0554,-6.037,0,0,0,0,0,-6.0246,-6.0289,-6.0303,-6.0371,-6.0383,-6.0384,-6.0407,-6.0397,-6.042,-6.0429,-6.0438,-6.046,-6.0498,-6.0523,-6.0558,-6.0638,-6.0642,-6.0676,-6.0687,-6.0697,-6.0705,-6.0747,-6.0762,-6.0602,-6.0602,-6.0602,0,0,-6.029,-6.0305,-6.0333,-6.0382,-6.0398,-6.0442,-6.0392,-6.044,-6.0472,-6.0436,-6.0497,-6.0505,-6.0528,-6.0601,-6.0634,-6.0611,-6.075,-6.0705,-6.0713,-6.0716,-6.0756,-6.0771,-6.0785,-6.0607,-6.0606,-6.0605,0,0,-6.0391,-6.0408,-6.0466,-6.0484,-6.051,-6.051,-6.0524,-6.0544,-6.0548,-6.061,-6.0583,-6.062,-6.0686,-6.0703,-6.0721,-6.0829,-6.0806,-6.0841,-6.09,-6.0942,-6.0954,-6.0965,-6.1003,-6.1017,-6.0849,-6.0849,-6.0849,0,-6.0442,-6.0508,-6.0498,-6.0549,-6.057,-6.0541,-6.0598,-6.0616,-6.0651,-6.0666,-6.064,-6.0722,-6.0735,-6.0811,-6.0838,-6.0853,-6.0868,-6.0838,-6.0953,-6.0964,-6.0975,-6.101,-6.1025,-6.0853,-6.0853,-6.0852,-6.0852,0,-6.0568,-6.0614,-6.0658,-6.0694,-6.0721,-6.0775,-6.0772,-6.08,-6.0789,-6.0791,-6.0854,-6.0869,-6.0907,-6.0924,-6.0913,-6.0999,-6.0983,-6.0956,-6.0908,-6.0994,-6.1027,-6.1041,-6.0859,-6.0857,-6.0856,-6.0855,0,0,-6.0704,-6.0735,-6.0751,-6.0767,-6.0794,-6.0828,-6.0881,-6.0918,-6.0942,-6.0968,-6.101,-6.1066,-6.1041,-6.1061,-6.1051,-6.1088,-6.1172,-6.1056,-6.1056,-6.1076,-6.1266,-6.1286,-6.1303,-6.1157,-6.116,-6.1162,-6.1264,0,-6.0806,-6.0898,-6.0891,-6.0977,-6.1019,-6.0992,-6.1037,-6.1057,-6.1061,-6.1096,-6.1099,-6.1139,-6.1103,-6.1115,-6.115,-6.1154,-6.121,-6.1147,-6.1195,-6.1197,-6.119,-6.132,-6.1342,-6.1437,-6.1277,-6.1279,-6.1281,0,-6.0937,-6.0969,-6.106,-6.108,-6.1097,-6.1138,-6.1172,-6.1206,-6.1228,-6.1228,-6.1251,-6.1235,-6.1286,-6.1239,-6.1308,-6.1266,-6.1285,-6.129,-6.1294,-6.1297,-6.1244,-6.1326,-6.1468,-6.1482,-6.1301,-6.13,-6.1298,0,-6.1026,-6.1091,-6.1154,-6.1169,-6.1194,-6.1223,-6.1235,-6.1254,-6.1278,-6.1307,-6.1321,-6.1356,-6.1374,-6.1401,-6.1394,-6.136,-6.1465,-6.1417,-6.1465,-6.1466,-6.1488,-6.1487,-6.1634,-6.1502,-6.1502,-6.1502,-6.1501,0,-6.114,-6.1197,-6.1194,-6.1233,-6.1295,-6.1286,-6.1347,-6.1355,-6.1373,-6.1411,-6.1389,-6.1426,-6.1415,-6.1451,-6.1446,-6.1504,-6.1513,-6.1513,-6.1511,-6.1515,-6.1515,-6.1527,-6.1519,-6.1505,-6.1504,-6.1504,-6.1503,0,-6.125,-6.1251,-6.1317,-6.1336,-6.1342,-6.1387,-6.1402,-6.1438,-6.144,-6.1489,-6.15,-6.1503,-6.1544,-6.154,-6.1585,-6.1582,-6.1654,-6.1644,-6.1647,-6.1644,-6.1693,-6.1688,-6.1852,-6.1873,-6.1728,-6.173,-6.1731,0,-6.1323,-6.1366,-6.139,-6.1414,-6.1428,-6.1469,-6.1492,-6.1484,-6.151,-6.1538,-6.157,-6.1609,-6.164,-6.1706,-6.1712,-6.1746,-6.1736,-6.1792,-6.1741,-6.1744,-6.1736,-6.1734,-6.1738,-6.1801,-6.1803,-6.1804,-6.1805,0,-6.1451,-6.1449,-6.1485,-6.1521,-6.1551,-6.1578,-6.1603,-6.1625,-6.1619,-6.1648,-6.169,-6.1714,-6.1761,-6.18,-6.1833,-6.1843,-6.1823,-6.1821,-6.1834,-6.1838,-6.1838,-6.1838,-6.1673,-6.1817,-6.1816,-6.1815,-6.1815,-6.1814,-6.1544,-6.1581,-6.1603,-6.1644,-6.1662,-6.1686,-6.1721,-6.1727,-6.1763,-6.1801,-6.1794,-6.1841,-6.1861,-6.1904,-6.1917,-6.1953,-6.1933,-6.1952,-6.1956,-6.1961,-6.1966,-6.1833,-6.1959,-6.1959,-6.1958,-6.1958,-6.1958,0,-6.167,-6.1684,-6.1721,-6.1758,-6.1789,-6.1769,-6.1796,-6.1823,-6.1865,-6.1887,-6.1918,-6.1966,-6.2003,-6.2012,-6.2047,-6.2074,-6.2066,-6.2083,-6.2081,-6.2083,-6.1983,-6.1968,-6.2089,-6.2089,-6.2089,-6.2089,-6.2089,-6.2089,-6.174,-6.1801,-6.1802,-6.1872,-6.1884,-6.1931,-6.1948,-6.197,-6.1987,-6.2042,-6.2073,-6.2079,-6.2095,-6.2131,-6.2164,-6.2165,-6.2179,-6.22,-6.2198,-6.2104,-6.2091,-6.2078,-6.2064,-6.2204,-6.2204,-6.2296,-6.2297,-6.2297]}]]